Presure
270 272 315 334 322 322 329 324 381 365 342 363 309 345 353 369 338 295 287 218 235 197 215 189 174 171 193 188 190 170 187 172 164 173 174 170 169 160 150 134 165 140 141 145 121
277 295 310 326 328 331 368 88 459 438 367 340 324 327 336 358 339 322 278 270 218 232 212 186 182 189 183 183 187 191 168 179 169 170 179 179 161 162 163 163 155 155 155 153 134
282 308 335 332 350 412 462 483 484 468 423 351 343 305 326 348 355 328 295 235 253 222 199 226 183 216 197 187 187 181 178 168 178 179 181 170 166 160 167 166 159 160 166 165 169
290 321 334 350 472 456 465 474 523 493 145 389 347 320 330 337 335 329 299 281 268 218 225 200 196 195 143 193 173 183 171 177 181 181 193 185 168 161 165 164 169 160 168 169 173
303 341 362 436 466 452 448 494 513 489 456 405 236 330 334 327 313 352 310 292 236 244 215 219 215 203 177 192 189 163 191 177 176 178 181 181 126 141 170 176 181 180 177 183 180
349 347 481 467 447 440 441 463 490 505 467 412 337 339 309 323 304 358 316 295 277 254 257 219 220 201 200 178 168 171 157 195 186 180 177 183 179 167 174 171 165 172 180 182 182
345 503 470 464 423 428 435 451 501 503 464 406 336 347 307 322 304 306 312 298 278 258 247 234 221 231 203 215 172 153 168 217 203 190 187 186 182 178 70 180 169 166 169 176 178
514 513 474 453 417 421 428 435 473 485 473 406 335 333 305 317 305 328 308 294 277 259 235 249 231 221 206 200 211 176 159 168 203 210 197 199 188 186 187 184 182 160 66 167 175
510 493 465 439 418 422 421 437 467 465 461 406 332 311 292 317 302 324 307 288 274 261 262 250 231 219 216 204 207 188 157 203 155 222 216 212 205 202 191 189 192 181 172 162 165
509 485 481 452 432 425 431 443 475 529 430 412 325 319 304 311 300 327 304 284 269 265 259 245 249 231 217 211 208 194 193 167 179 160 152 162 218 216 213 187 190 187 185 181 183
491 466 434 432 453 434 432 461 466 548 422 388 320 307 290 300 293 323 287 270 272 262 257 252 241 228 242 216 213 189 197 182 148 216 183 162 211 209 215 204 189 191 181 179 177
509 481 427 426 452 437 449 482 568 444 403 350 303 303 288 291 299 329 306 267 266 254 253 250 257 240 231 240 222 206 199 200 179 158 149 143 140 210 199 210 202 201 200 199 193
467 501 456 438 465 450 469 534 440 418 372 312 287 302 294 289 285 318 307 269 258 261 258 255 252 255 240 232 224 232 196 215 206 192 208 207 156 150 191 218 187 191 215 213 212
369 524 479 472 456 467 484 435 414 380 328 302 282 292 285 287 272 296 302 278 258 257 260 256 250 258 249 231 237 224 209 204 196 193 198 212 190 205 174 168 217 203 207 204 207
334 508 497 490 501 434 432 406 386 343 312 293 185 288 290 298 275 308 310 284 256 249 263 254 245 255 256 255 232 240 218 191 195 192 199 193 201 200 191 160 212 210 210 217 210
343 412 424 430 427 390 411 388 353 320 308 295 262 243 290 278 276 302 306 301 264 251 260 263 257 250 257 253 251 248 228 227 219 205 189 208 218 210 192 186 190 208 179 191 114
322 385 385 442 413 346 389 357 322 306 290 282 293 284 284 276 271 305 298 308 275 261 260 263 252 252 248 252 251 246 244 227 215 209 187 190 179 137 135 187 206 205 199 207 205
323 404 376 347 365 360 366 312 298 289 282 287 270 277 267 274 276 279 297 301 301 275 266 260 254 247 246 251 238 245 244 247 243 215 210 206 200 198 198 224 201 216 212 201 204
374 300 340 307 309 300 293 300 275 291 263 257 269 261 273 271 273 286 292 296 284 290 295 288 277 251 247 240 244 251 242 237 238 238 245 238 236 238 239 238 236 209 206 220 209
385 304 302 270 287 292 285 272 262 261 265 267 266 262 269 270 277 296 285 279 284 282 282 287 279 276 241 241 241 236 233 234 252 231 227 243 233 236 128 201 231 232 227 238 219
346 323 290 269 291 281 270 284 277 267 266 266 258 262 260 257 291 277 288 281 280 280 277 282 277 263 268 249 240 241 230 228 236 232 223 227 232 233 239 229 229 225 229 240 237
288 316 284 284 300 286 268 263 256 259 256 245 251 254 262 261 269 313 291 284 275 282 262 273 273 273 271 255 250 245 241 242 238 237 235 245 242 237 232 238 232 231 241 238 265
295 325 291 278 286 267 277 263 253 255 252 244 241 239 242 248 256 263 283 282 280 277 279 273 270 267 264 268 254 246 244 240 239 239 239 238 231 237 245 250 256 258 250 259 264
312 319 299 304 280 267 257 269 250 235 238 238 239 239 247 246 249 249 258 263 281 264 272 267 268 267 274 275 272 264 265 262 262 260 257 263 261 249 253 252 252 256 263 256 254
275 288 277 299 289 278 269 255 252 251 245 237 240 241 243 246 290 287 287 290 253 255 272 261 256 260 259 259 258 264 270 270 272 271 273 259 253 249 252 256 257 253 243 233 257
89 285 279 311 313 286 274 268 256 251 251 243 240 240 240 239 281 271 267 268 271 284 283 260 258 265 258 256 259 257 259 257 256 254 246 245 252 252 251 245 240 223 243 257 235
286 293 289 328 308 321 288 272 261 262 250 249 249 249 243 191 268 261 260 260 261 264 271 273 275 278 282 271 258 254 253 246 252 257 249 244 243 238 228 233 243 239 226 232 257
Wind_Speed
97 91 87 83 80 77 76 66 67 63 55 56 61 62 58 72 91 107 104 107 117 105 110 102 89 82 101 100 100 92 96 96 96 101 103 92 88 82 83 68 83 76 77 80 58
100 96 92 90 85 80 71 22 61 66 63 61 66 65 66 60 85 99 110 117 109 116 107 101 96 99 95 96 98 97 91 95 100 100 101 98 81 83 87 88 85 85 86 84 71
102 97 96 95 95 82 59 57 59 63 66 69 70 68 69 68 74 87 109 114 118 111 105 110 97 115 104 96 96 93 93 93 100 103 105 90 86 81 88 90 88 88 90 88 87
104 100 100 102 53 55 52 50 37 50 17 70 72 70 71 66 73 90 106 112 112 110 112 105 102 97 66 101 85 95 91 95 99 99 101 99 89 83 89 94 93 87 90 91 91
105 105 107 75 45 45 45 32 31 36 60 69 48 75 72 71 75 76 101 107 112 120 106 108 105 103 89 100 98 75 100 95 96 96 97 94 56 61 84 93 90 93 89 90 90
108 107 50 44 38 37 38 32 25 29 51 66 75 76 71 73 80 62 94 103 108 113 114 110 109 104 101 88 77 83 69 100 99 95 91 93 92 86 91 89 83 83 85 83 84
107 44 43 35 36 32 33 30 24 18 47 62 76 75 68 71 81 76 89 96 106 110 111 120 112 111 103 101 79 69 80 104 106 102 97 96 92 90 18 87 83 82 81 82 83
50 33 31 28 31 28 28 25 17 16 40 60 75 70 63 73 75 70 84 89 100 104 109 115 117 106 100 96 96 83 73 79 91 105 101 101 94 91 93 92 91 81 11 83 85
43 28 23 24 26 21 26 19 16 17 41 59 72 62 65 69 67 67 81 85 96 101 102 107 116 106 101 96 94 87 72 89 72 92 97 97 97 101 96 94 94 91 89 84 86
38 28 19 21 21 15 19 15 18 11 47 61 68 64 63 63 64 54 80 85 93 98 101 106 105 113 104 97 93 89 89 78 83 65 58 62 88 94 99 90 92 92 93 92 93
41 29 31 28 13 13 10 14 8 9 51 62 61 56 60 65 68 53 84 82 85 92 95 100 105 104 99 106 100 86 87 81 66 85 77 64 77 91 95 96 93 96 89 90 91
32 25 27 28 22 8 6 7 5 41 57 62 54 59 64 63 60 52 75 84 85 92 99 98 90 102 103 97 97 91 89 90 81 67 62 61 61 88 85 92 97 98 100 101 101
56 17 17 18 13 4 6 11 38 51 61 57 55 56 57 57 55 51 68 84 85 91 98 89 84 90 97 98 98 94 91 92 88 81 81 81 67 72 84 90 76 77 90 93 93
84 19 16 16 11 11 14 40 52 60 59 54 52 53 55 55 55 50 66 86 84 85 90 86 84 83 93 98 94 97 93 90 86 80 80 82 77 84 79 71 86 85 88 87 89
87 40 28 20 15 23 39 53 57 59 54 50 17 53 50 47 44 48 53 79 84 81 84 86 80 81 85 87 94 91 92 80 81 78 79 79 79 90 85 68 85 86 89 89 87
83 54 48 32 29 30 45 50 54 47 45 39 27 19 36 35 38 45 48 65 85 79 83 82 79 80 81 81 80 80 92 88 87 85 76 84 82 89 87 81 82 84 75 78 42
79 48 48 50 50 30 50 52 43 36 33 28 28 28 30 33 31 37 45 55 79 85 80 77 73 76 77 71 72 78 80 87 85 82 80 82 77 42 54 79 84 82 82 83 85
72 49 39 43 34 31 43 35 33 33 29 28 25 24 22 21 22 24 33 44 56 80 86 76 75 74 73 71 75 73 73 72 76 84 83 83 85 86 86 90 84 88 87 85 87
44 63 42 42 48 46 44 37 35 31 30 25 20 16 17 15 18 23 30 38 42 50 58 67 80 74 75 69 69 70 69 72 73 73 69 74 77 76 77 78 80 86 86 83 84
34 56 46 54 36 39 35 32 27 26 24 23 19 17 15 15 16 25 27 30 41 42 47 51 59 72 74 74 73 68 67 67 64 71 74 66 77 75 35 62 77 78 82 79 87
40 33 49 46 29 29 25 28 25 21 19 17 15 11 9 7 9 15 25 31 37 37 40 42 52 58 77 84 70 70 65 65 64 67 71 73 73 70 66 72 73 75 75 74 80
53 26 41 39 19 21 19 17 16 19 19 15 13 11 9 10 8 15 22 26 32 37 40 42 46 51 56 81 76 72 66 67 65 66 67 68 68 67 67 66 65 71 72 73 70
45 26 28 31 24 28 15 13 13 12 11 8 6 3 2 3 6 11 14 20 26 30 33 38 39 44 49 55 71 72 69 68 68 69 68 67 65 64 66 64 63 63 65 62 61
37 27 22 8 17 18 17 10 11 13 9 5 2 1 2 4 8 9 12 16 23 27 30 33 32 31 32 39 48 51 52 52 54 54 56 53 53 57 58 59 56 54 51 55 54
45 37 34 15 12 11 8 9 7 8 7 8 9 8 8 9 10 13 14 16 19 21 29 31 32 36 36 37 36 35 36 40 38 37 36 40 39 42 43 44 44 48 47 50 48
27 32 33 20 11 12 13 9 10 9 10 9 10 11 12 13 10 11 12 11 11 16 22 27 29 34 37 37 38 38 37 35 34 32 31 36 33 35 38 39 40 43 44 41 39
40 30 26 18 18 11 15 15 16 16 14 15 15 16 17 13 14 14 13 11 11 14 20 23 25 26 30 35 36 34 33 30 28 27 28 30 33 32 33 33 36 36 41 36 35
Wind_Direction
341 337 331 322 320 314 305 296 279 269 255 240 235 234 227 225 219 222 220 219 220 221 219 223 227 226 226 227 228 230 229 233 235 237 239 238 238 235 238 248 244 246 248 247 248
339 335 330 323 318 312 292 286 266 254 247 237 235 227 226 225 218 218 219 217 219 222 219 223 225 225 226 228 228 228 230 231 234 237 239 239 237 239 243 244 243 244 246 246 252
338 333 326 322 317 299 287 271 259 242 237 229 224 223 222 221 218 213 217 217 217 220 220 220 226 221 225 228 229 228 227 232 233 236 239 239 240 240 243 245 246 248 251 254 255
337 331 327 321 302 297 289 284 264 241 258 220 218 220 218 216 217 212 213 217 216 220 221 221 222 225 228 227 227 228 229 230 232 234 237 238 240 241 243 244 247 247 250 252 254
336 331 325 312 303 300 296 293 272 235 221 214 227 214 211 209 212 212 212 216 215 215 221 222 220 221 225 224 226 226 229 231 234 235 236 237 240 239 240 243 244 248 251 253 254
334 329 315 310 305 304 304 302 285 243 212 206 210 208 211 205 213 205 210 213 213 215 216 222 223 222 224 225 227 227 230 231 233 236 238 239 239 241 242 243 244 247 250 252 254
334 319 314 309 309 305 309 307 314 253 206 201 205 203 208 203 212 210 208 210 212 214 214 217 223 225 223 223 226 228 231 232 233 235 237 239 241 241 252 245 244 245 248 251 251
325 313 309 310 311 308 309 304 303 240 201 194 200 201 201 202 209 209 206 210 211 215 216 214 220 223 222 225 224 227 230 233 234 234 237 239 242 243 244 244 243 245 252 249 252
335 324 317 314 308 306 304 305 295 213 190 186 196 198 199 201 206 206 204 207 211 213 214 216 217 222 225 224 227 227 229 231 234 237 236 238 241 244 243 245 244 246 245 248 249
345 345 318 311 306 296 304 299 290 266 179 180 190 190 196 196 201 201 199 205 211 214 214 216 218 219 224 227 227 229 229 232 235 235 234 237 241 244 243 245 246 245 247 249 252
342 343 345 354 321 304 305 309 218 194 172 174 185 188 195 194 199 193 198 204 210 215 215 216 218 219 220 225 227 228 231 234 233 237 238 238 240 244 245 243 246 247 248 250 251
339 336 332 353 337 340 323 17 307 156 164 168 178 185 192 197 198 192 196 203 205 212 215 214 218 218 221 220 225 228 230 233 233 233 234 235 237 243 245 245 246 249 251 252 253
357 340 350 350 337 27 34 350 142 148 158 169 178 184 190 194 198 192 194 203 207 211 219 213 215 218 219 220 224 223 229 230 234 235 238 240 240 244 248 247 247 249 251 253 255
3 22 6 1 33 58 97 130 138 150 158 165 177 182 189 191 196 197 196 201 209 212 217 215 215 217 217 220 220 223 228 231 235 237 237 238 242 243 248 250 249 250 251 253 255
6 36 41 44 42 105 124 133 144 151 159 171 190 181 188 187 197 194 197 198 208 214 217 217 215 220 220 219 221 224 228 233 236 238 239 242 240 246 247 249 248 251 253 254 257
8 42 41 53 82 93 123 134 144 150 159 164 168 170 179 183 192 195 200 198 208 216 218 218 218 219 221 219 221 223 226 229 232 236 240 239 238 242 249 251 251 251 259 257 261
10 35 45 76 82 83 121 136 137 140 138 144 158 163 172 182 191 195 202 201 203 216 220 220 220 224 224 221 221 224 227 230 234 237 238 241 243 235 243 252 254 254 257 259 261
11 35 40 52 88 105 127 98 107 115 124 131 140 152 168 181 195 196 200 204 206 212 219 224 222 223 226 225 222 224 226 230 232 236 238 242 244 246 250 250 256 256 257 259 261
24 15 43 54 71 76 82 93 102 106 123 128 129 146 155 166 184 195 200 206 212 213 215 221 224 225 229 229 229 230 228 229 233 235 236 239 243 244 246 249 253 258 262 262 265
32 17 28 21 52 74 85 95 105 116 123 127 134 140 150 162 174 195 201 206 209 213 215 214 220 220 227 230 232 230 230 233 236 235 238 241 243 245 248 249 252 255 259 263 266
13 19 18 24 44 62 61 91 97 96 95 92 94 94 95 101 218 195 190 199 210 210 210 214 216 220 222 229 234 235 232 235 237 237 242 245 246 249 252 252 256 260 263 265 265
1 21 14 20 41 41 47 66 70 87 89 93 93 99 118 131 140 186 189 197 203 210 211 213 216 218 223 226 231 235 239 240 242 244 246 250 253 255 256 259 261 263 267 271 276
359 11 9 14 7 24 38 42 40 72 89 102 107 119 158 170 165 160 168 189 200 208 211 219 222 222 222 224 231 237 241 245 244 247 248 250 253 259 263 265 266 270 271 272 276
359 6 0 357 11 23 25 15 7 8 4 4 6 283 306 268 254 239 214 189 191 197 198 202 201 208 214 225 230 231 233 235 236 241 244 247 249 256 259 263 266 268 268 272 280
345 348 354 346 335 349 7 9 353 332 319 314 304 294 286 285 225 199 191 196 209 202 201 205 209 207 207 209 214 217 223 228 230 233 237 240 243 250 256 258 259 266 277 280 288
341 342 342 338 306 297 312 302 318 304 292 284 279 285 286 287 225 225 206 197 202 206 210 212 212 213 216 216 216 216 217 221 224 228 231 238 242 244 249 259 268 272 280 285 283
330 333 341 342 319 303 275 286 297 282 293 283 281 275 278 297 242 237 222 209 205 206 202 203 207 212 218 218 217 215 217 218 221 218 220 232 240 250 259 270 275 275 277 283 293